Location: Unnamed
(48.6007°N, 2.4808°E)
Time: 06:06:42
(UTC+01:00)

METEOR M2 - Visible Passes

Search period start: 23 March 2023 00:00
Search period end: 02 April 2023 01:00
Orbit: 819 x 826 km, 98.4° (Epoch: 22 March)

Date Brightness Start Highest point End Pass type
(mag) Time Alt. Az. Time Alt. Az. Time Alt. Az.
23 Mar ? 19:46:47 10° SW 19:50:16 17° W 19:53:46 10° NW visible
25 Mar ? 05:59:05 10° NE 06:02:30 17° E 06:05:54 10° SE visible
26 Mar ? 06:40:37 10° ENE 06:42:12 11° E 06:43:46 10° ESE visible
27 Mar ? 21:09:12 10° WSW 21:10:49 11° W 21:12:27 10° WNW visible
28 Mar ? 20:47:06 10° SW 20:50:31 17° W 20:53:58 10° NW visible
30 Mar ? 06:59:17 10° NE 07:02:45 17° E 07:06:11 10° SE visible
31 Mar ? 06:40:44 10° ENE 06:42:26 11° E 06:44:09 10° ESE visible
01 Apr ? 21:09:36 10° W 21:11:04 11° W 21:12:33 10° WNW visible
